GW1482 Weather Reports


Display with metric or nautical units.
time (UTC)temp
F
wind
direction
speed
MPH
gust
MPH
rain 1hr
in
rain 24hr
in
rain mn
in
humidity
%
barometer
mb
20260504231519 65 7 0.0 0.0 0.00 0.00 0.00 55 997.6
20260504230952 65 30 0.0 0.0 0.00 0.00 0.00 55 997.6
20260504225714 65 15 1.0 1.0 0.00 0.00 0.00 55 997.6
20260504225147 65 33 0.0 1.0 0.00 0.00 0.00 54 997.9
20260504224511 65 4 1.0 1.0 0.00 0.00 0.00 54 997.6
20260504223935 65 349 1.0 2.0 0.00 0.00 0.00 54 997.6
20260504223316 65 15 0.0 0.0 0.00 0.00 0.00 55 997.9
20260504222753 66 38 0.0 0.0 0.00 0.00 0.00 55 998.3
20260504222112 66 349 2.0 4.0 0.00 0.00 0.00 52 997.9
20260504221522 66 319 2.0 2.0 0.00 0.00 0.00 53 997.9
20260504220927 65 26 2.0 3.0 0.00 0.00 0.00 53 997.9
20260504220316 65 308 5.0 6.0 0.00 0.00 0.00 54 998.3
20260504215123 64 329 2.0 3.0 0.00 0.00 0.00 57 997.9
20260504214552 64 359 0.0 0.0 0.00 0.00 0.00 56 998.3
20260504213951 65 353 4.0 4.0 0.00 0.00 0.00 55 997.9
20260504211527 65 0 0.0 0.0 0.00 0.00 0.00 55 998.3
20260504210950 65 21 2.0 3.0 0.00 0.00 0.00 54 997.9
20260504210330 66 107 4.0 6.0 0.00 0.00 0.00 53 998.3
20260504205734 66 315 2.0 3.0 0.00 0.00 0.00 52 997.9
20260504205140 66 308 5.0 6.0 0.00 0.00 0.00 51 997.6
20260504204542 66 60 1.0 2.0 0.00 0.00 0.00 52 997.6
20260504203931 66 67 2.0 3.0 0.00 0.00 0.00 51 997.9
20260504202734 66 3 0.0 0.0 0.00 0.00 0.00 49 997.9
20260504202114 67 345 2.0 3.0 0.00 0.00 0.00 49 997.6
20260504201541 68 6 3.0 6.0 0.00 0.00 0.00 48 997.9
20260504200320 68 323 1.0 2.0 0.00 0.00 0.00 48 997.9
20260504195752 67 19 2.0 2.0 0.00 0.00 0.00 49 998.3
20260504195124 66 301 3.0 3.0 0.00 0.00 0.00 51 998.3
20260504194552 66 334 4.0 6.0 0.00 0.00 0.00 51 998.3
20260504193936 67 285 3.0 3.0 0.00 0.00 0.00 49 997.9
20260504193337 68 335 5.0 6.0 0.00 0.00 0.00 48 997.9
20260504192722 69 320 4.0 6.0 0.00 0.00 0.00 47 997.9
20260504192139 69 319 5.0 7.0 0.00 0.00 0.00 46 997.9
20260504191533 70 52 1.0 1.0 0.00 0.00 0.00 46 997.9
20260504190949 68 329 3.0 6.0 0.00 0.00 0.00 47 997.9
20260504185733 68 47 1.0 2.0 0.00 0.00 0.00 49 997.9
20260504184535 68 268 3.0 3.0 0.00 0.00 0.00 47 997.9
20260504183943 67 78 1.0 1.0 0.00 0.00 0.00 48 998.3
20260504183329 68 15 1.0 2.0 0.00 0.00 0.00 51 998.3
20260504182741 67 60 4.0 6.0 0.00 0.00 0.00 49 998.3
20260504182142 68 6 4.0 4.0 0.00 0.00 0.00 47 998.3
20260504181512 68 308 6.0 7.0 0.00 0.00 0.00 48 998.3
20260504180923 68 1 4.0 8.0 0.00 0.00 0.00 49 998.6
20260504180320 66 309 4.0 4.0 0.00 0.00 0.00 51 998.6
20260504175748 66 312 7.0 11.0 0.00 0.00 0.00 52 998.9
20260504174534 66 10 1.0 1.0 0.00 0.00 0.00 53 998.9
20260504173931 66 308 2.0 3.0 0.00 0.00 0.00 52 998.6
20260504172713 63 337 2.0 3.0 0.00 0.00 0.00 55 998.9
20260504172134 63 278 2.0 2.0 0.00 0.00 0.00 60 998.9
20260504171554 62 341 1.0 2.0 0.00 0.00 0.00 58 999.3
20260504170919 61 341 6.0 8.0 0.00 0.00 0.00 59 999.3
20260504170335 59 326 4.0 6.0 0.00 0.00 0.00 61 999.6
20260504160347 57 261 4.0 4.0 0.00 0.00 0.00 62 1000.6
20260504150915 57 7 3.0 3.0 0.00 0.00 0.00 59 1000.6
20260504140937 56 314 1.0 2.0 0.00 0.00 0.00 60 1000.3
20260504140321 55 327 1.0 1.0 0.00 0.00 0.00 61 1000.6
20260504130318 53 351 3.0 3.0 0.00 0.00 0.00 58 1000.0
20260504110322 46 51 1.0 1.0 0.00 0.00 0.00 73 1000.3
20260504100350 46 59 1.0 2.0 0.00 0.00 0.00 79 1000.3
20260504081552 42 44 0.0 1.0 0.00 0.00 0.00 97 1000.6
20260504080329 43 26 0.0 0.0 0.00 0.00 0.00 96 1000.6
20260504070351 44 18 1.0 1.0 0.00 0.00 0.00 88 1001.0
20260504045731 45 344 1.0 1.0 0.00 0.00 0.00 67 1001.3
20260504045152 44 53 1.0 2.0 0.00 0.00 0.00 70 1001.6
20260504044536 44 54 1.0 1.0 0.00 0.00 0.00 70 1001.3
20260504043915 44 54 1.0 1.0 0.00 0.00 0.00 69 1001.0
20260504042719 44 52 1.0 1.0 0.00 0.00 0.00 71 1001.3
20260504042142 44 57 1.0 1.0 0.00 0.00 0.00 69 1001.3
20260504041542 44 58 1.0 1.0 0.00 0.00 0.00 70 1001.3
20260504040949 44 61 2.0 2.0 0.00 0.00 0.00 69 1001.6
20260504035738 44 38 1.0 1.0 0.00 0.00 0.00 67 1001.3
20260504035142 44 51 1.0 1.0 0.00 0.00 0.00 68 1001.3
20260504033953 45 37 0.0 0.0 0.00 0.00 0.00 68 1001.3
20260504033342 45 46 1.0 1.0 0.00 0.00 0.00 67 1001.3
20260504032714 45 48 1.0 1.0 0.00 0.00 0.00 64 1001.3
20260504032125 45 53 1.0 1.0 0.00 0.00 0.00 65 1001.3
20260504031536 45 46 1.0 1.0 0.00 0.00 0.00 64 1001.3
20260504030952 45 52 1.0 1.0 0.00 0.00 0.00 65 1001.6
20260504030354 45 36 0.0 0.0 0.00 0.00 0.00 65 1001.3
20260504025115 46 32 0.0 0.0 0.00 0.00 0.00 65 1001.3
20260504024555 46 36 0.0 0.0 0.00 0.00 0.00 67 1001.3
20260504023317 47 30 0.0 1.0 0.00 0.00 0.00 65 1001.6
20260504022747 47 30 0.0 1.0 0.00 0.00 0.00 62 1001.3
20260504021538 47 32 0.0 0.0 0.00 0.00 0.00 63 1001.6
20260504020353 48 22 0.0 0.0 0.00 0.00 0.00 59 1001.3
20260504015734 48 21 0.0 0.0 0.00 0.00 0.00 64 1001.6
20260504015121 48 32 0.0 0.0 0.00 0.00 0.00 58 1001.6
20260504014530 48 32 0.0 0.0 0.00 0.00 0.00 57 1001.3
20260504013925 48 32 0.0 0.0 0.00 0.00 0.00 53 1001.6
20260504013334 48 32 0.0 0.0 0.00 0.00 0.00 50 1001.3
20260504012735 48 32 0.0 0.0 0.00 0.00 0.00 54 1001.0
20260504011522 48 32 0.0 0.0 0.00 0.00 0.00 50 1001.3
20260504010939 48 32 0.0 0.0 0.00 0.00 0.00 52 1001.3
20260504010354 48 32 0.0 0.0 0.00 0.00 0.00 49 1001.0
20260504005728 49 32 0.0 0.0 0.00 0.00 0.00 49 1001.0
20260504004531 49 32 0.0 0.0 0.00 0.00 0.00 53 1001.0
20260504003953 49 32 0.0 0.0 0.00 0.00 0.00 52 1001.0
20260504003337 49 15 0.0 0.0 0.00 0.00 0.00 50 1001.0
20260504002742 49 15 0.0 0.0 0.00 0.00 0.00 49 1001.0
20260504002127 50 14 0.0 0.0 0.00 0.00 0.00 48 1001.0
20260504001533 50 13 0.0 0.0 0.00 0.00 0.00 50 1001.0
20260504000928 50 19 0.0 0.0 0.00 0.00 0.00 47 1001.0
20260504000328 51 19 0.0 1.0 0.00 0.00 0.00 50 1001.0
20260503234521 51 19 0.0 0.0 0.00 0.00 0.00 42 1001.0